Home > Weather > Sitka > Past weeks

Flag for U.S.A. Weather for the Past 2 Weeks in Sitka, Alaska, U.S.A.

Now
52 °F

Passing clouds.


Feels Like: 47 °F
Forecast: 47 / 51 °F
Wind: 14 mph from Southeast

Location: Sitka Airport

Current Time: Feb 9, 2016 at 9:46:33 PM

Latest Report: Feb 9, 2016 at 8:53 PM


Visibility: 10 mi

Pressure: 29.62 "Hg

Humidity: 55%

Dew point: 36 °F

Location of SitkaLocation

Historic Weather in Sitka — Graph

°F

Sitka Temperature Yesterday

Maximum temperature yesterday: 52 °F (at 3:53 PM)
Minimum temperature yesterday: 42 °F (at 12:53 AM)
Average temperature yesterday: 46 °F

High & Low Weather Summary for the Past Weeks

 TemperatureHumidityPressure
High54 °F (Feb 9, 4:53 PM)100% (Jan 31, 4:53 AM)30.19 "Hg (Jan 31, 4:53 AM)
Low32 °F (Feb 1, 2:53 AM)45% (Feb 9, 5:53 PM)28.93 "Hg (Jan 26, 3:53 AM)
Average42 °F81%29.69 "Hg
* Reported Jan 25 7:53 PM — Feb 9 7:53 PM, Sitka, Weather by CustomWeather, © 2016

Note: Actual official high and low records may vary slightly from our data, if they occured in-between our weather recording intervals... More about our weather records

Advertising

Sitka Weather History for the Previous 24 Hours

 ConditionsComfort  
Time TempWeatherWind HumidityBarometerVisibility
7:53 PM
Tue, Feb 9
54 °FPassing clouds.16 mph51%29.62 "Hg10 mi
6:53 PM52 °FPassing clouds.17 mph50%29.64 "Hg10 mi
5:53 PM54 °FPassing clouds.13 mph45%29.65 "Hg10 mi
4:53 PM54 °FMostly cloudy.5 mph49%29.67 "Hg10 mi
3:53 PM46 °FBroken clouds.7 mph83%29.68 "Hg10 mi
2:53 PM47 °FPartly sunny.7 mph74%29.73 "Hg10 mi
1:53 PM47 °FOvercast.6 mph74%29.79 "Hg10 mi
12:53 PM46 °FPartly sunny.9 mph77%29.83 "Hg10 mi
11:53 AM44 °FPartly sunny.10 mph82%29.89 "Hg10 mi
10:53 AM43 °FOvercast.10 mph89%29.94 "Hg10 mi
9:53 AM42 °FPartly sunny.9 mph92%29.99 "Hg10 mi
8:53 AM40 °FSunny.3 mph97%30.02 "Hg10 mi
7:53 AM39 °FSunny.3 mph96%30.06 "Hg10 mi
6:53 AM39 °FClear.3 mph96%30.07 "Hg10 mi
5:53 AM41 °FPassing clouds.No wind93%30.10 "Hg10 mi
4:53 AM40 °FPassing clouds.3 mph97%30.13 "Hg10 mi
4:03 AM41 °FPassing clouds.No wind93%30.15 "Hg10 mi
3:53 AM42 °FPassing clouds.No wind89%30.15 "Hg10 mi
2:53 AM42 °FPassing clouds.5 mph89%30.15 "Hg10 mi
1:53 AM43 °FOvercast.3 mph89%30.16 "Hg10 mi
12:53 AM44 °FOvercast.5 mph82%30.15 "Hg10 mi
11:53 PM
Mon, Feb 8
44 °FLight rain. Overcast.13 mph93%30.14 "Hg10 mi
10:53 PM44 °FLight rain. Fog.9 mph93%30.11 "Hg3 mi
9:53 PM45 °FLight rain. Fog.18 mph90%30.07 "Hg6 mi
Weather by CustomWeather, © 2016

See weather overviewHow to use our weather pages